STARLINK-34848, 65402

Orbit data source: Space-Track

STARLINK-34848, 65402 is a payload satellite owned by SpaceX/Seattle (US) in SSO that was launched on Sat, 30 Aug 2025 UTC via an FALCON 9 launch vehicle from the Air Force Western Test Range (AFWTR). Payload-class satellites include a variety of spacecraft equipped with specific instruments for various scientific and technological missions. These include communications satellites like Starlink; space stations such as the ISS; scientific satellites like the Hubble; Earth observation satellites from companies like Planet Labs, Umbra, and HawkEye 360; GPS; miniature CubeSats for education and research; and military/defense satellites.

Loading next visibility...
Identifier
65402, 2025-191Z
Orbit
SSO
Country
Flag of USUS
Related business
Manufacturer
SpaceX/Seattle
Mission
Operational Commercial Communications
Bus & Motor
STARLINK V2MO, Unknown motor
Mass
575 kg wet, ~530 kg dry
Launch date (UTC)
2025-08-30 (10 months ago)
Launch vehicle
FALCON 9
Launch site
Air Force Western Test Range (AFWTR)
Object type
Payload
Rocket body
Debris
Shape & HBR
Box + 2 Pan, 17.7 m
Radar Cross Section
36.964 m², Large (>1 m²)

Expand to show TLE details & history
Last TLE update: 11 hours ago

TLE from 11 hours ago
0 STARLINK-34848
1 65402U 25191Z   26171.37888448  .00007672  00000-0  53483-3 0  9990
2 65402  97.3453  41.6860 0002142  65.5762 294.5689 15.05671643 45724
Epoch: 2026-06-20T09:05Z
TLE epoch observation values (Epoch: 2026-06-20T09:05:35.619Z)
Latitude
0.00002°
Longitude
-3.30677°
Altitude
551.9 km
Speed
7.586 km/s
True Right ascension
02h 46m 44s
True Declination
0° 00' 00"
Sunlit
Object was in daylight at epoch
Visualization orbit readout
Latitude
Unknown
Longitude
Unknown
Altitude
Unknown
Speed
Unknown
Apparent Right ascension
Unknown
Apparent Declination
Unknown
Sunlit
N/A
Visualization observer readout
Local Sidereal Time
07:20:21
Azimuth
Unknown
Elevation
Unknown
Doppler factor
Unknown
Orbital elements
Apogee altitude
547.91 km
Perigee altitude
544.944 km
Semi-major axis
6,924.564 km
Eccentricity
0.00021
Inclination
97.3453°
RAAN
41.686°
Arg. of periapsis
65.5762°
True anomaly
294.54657°
Mean anomaly
294.5689°
Eccentric anomaly
294.55774°
Mean motion
3.76664 °/min
Orbital period
95.58 mins
BSTAR
0.00053483
Loading maneuver chart data...
Computing Atmospheric mass density...
Loading historical data...
Loading historical data...
Loading historical data...
Loading historical data...
Loading historical data...
Loading historical data...
Loading historical data...

Documentation

Showing up to 5 results
|